Content
SEND FEEDBACK

Daily
Averages
Monthly
Summary
United States of America

BROOKHAVEN, MISSISSIPPI


Home > North America > United States > Mississippi
Elevation: 434 feet     Latitude: 31 33N     Longitude: 090 27W

WEATHER
 
SELECT A DAY
Number of Records: 77,585;   Date Range: 4/2/11 - 7/11/14
 
SHARE

PRINT THIS DATA

[ ← Previous Day ]
WEATHER ALMANAC - JANUARY 23, 2013
[ Next Day → ]
[ °C ]   °F
Weather ElementAverageHighLow
Temperature54.1 °F69.8 °F (1:55 pm)37.4 °F (12:35 am)
Dewpoint43.9 °F50 °F (10:55 pm)37.4 °F (12:35 am)
Humidity72.2 %100 % (12:35 am)38 % (1:55 pm)
Barometer30.32 in30.39 in (9:15 am)30.27 in (4:15 pm)
Wind Speed4.3 mph11.5 mph (3:15 pm)
Weather ElementAverage
Visibility9.2 mi
Wind DirectionSSE (145.1 °)

Weather ElementTotal
Precipitation---
Heating Degree Days11.4 (Base 65)
Growing Degree Days3.6 (Base 50)
Averaged from 69 records on January 23, 2013
WEATHER CONDITIONS BREAKOUT
WIND DIRECTION BREAKOUT
WEATHER BY HOUR - JANUARY 23, 2013
[ °C ]   °F
Local TimeTemperatureDewpointHumidityBarometerVisibilityWind DirectionWind SpeedGust SpeedPrecipitationEventsConditions
12:35 AM37.4 °F37.4 °F100 %30.33 in9.0 miCalmClear
12:55 AM37.4 °F37.4 °F100 %30.33 in10.0 miCalmClear
1:15 AM37.4 °F37.4 °F100 %30.32 in10.0 miCalmClear
1:35 AM39.2 °F37.4 °F93 %30.32 in10.0 miCalmClear
1:55 AM42.8 °F39.2 °F87 %30.32 in10.0 miSouth (180°)4.6 mphClear
2:15 AM42.8 °F39.2 °F87 %30.33 in10.0 miSouth (180°)4.6 mphClear
2:35 AM42.8 °F39.2 °F87 %30.33 in10.0 miCalmClear
2:55 AM41.0 °F39.2 °F93 %30.33 in10.0 miCalmClear
3:15 AM42.8 °F39.2 °F87 %30.33 in10.0 miSouth (190°)4.6 mphClear
3:35 AM42.8 °F39.2 °F87 %30.32 in10.0 miSouth (190°)3.5 mphClear
3:55 AM42.8 °F41.0 °F93 %30.32 in10.0 miSSW (200°)4.6 mphPartly Cloudy
4:15 AM42.8 °F42.8 °F100 %30.32 in7.0 miSSW (200°)5.8 mphMostly Cloudy
4:35 AM44.6 °F42.8 °F93 %30.33 in8.0 miSSW (200°)3.5 mphOvercast
4:55 AM44.6 °F42.8 °F93 %30.34 in9.0 miSSW (200°)3.5 mphMostly Cloudy
5:15 AM44.6 °F42.8 °F93 %30.35 in7.0 miCalmMostly Cloudy
5:35 AM44.6 °F42.8 °F93 %30.35 in7.0 miCalmMostly Cloudy
5:55 AM42.8 °F42.8 °F100 %30.35 in7.0 miCalmMostly Cloudy
6:15 AM42.8 °F42.8 °F100 %30.35 in7.0 miSSW (200°)3.5 mphMostly Cloudy
6:35 AM42.8 °F42.8 °F100 %30.36 in6.0 miCalmMostly Cloudy
6:55 AM42.8 °F42.8 °F100 %30.36 in4.0 miCalmScattered Clouds
7:15 AM42.8 °F41.0 °F93 %30.36 in4.0 miCalmScattered Clouds
7:55 AM44.6 °F44.6 °F100 %30.37 in6.0 miCalmScattered Clouds
8:15 AM46.4 °F44.6 °F93 %30.38 in8.0 miSSW (200°)4.6 mphMostly Cloudy
8:35 AM46.4 °F44.6 °F93 %30.38 in6.0 miSSW (200°)4.6 mphMostly Cloudy
8:55 AM48.2 °F44.6 °F87 %30.38 in7.0 miSSW (200°)4.6 mphMostly Cloudy
9:15 AM51.8 °F44.6 °F76 %30.39 in8.0 miSSW (200°)5.8 mphMostly Cloudy
9:35 AM53.6 °F46.4 °F77 %30.39 in9.0 miSW (220°)5.8 mphMostly Cloudy
9:55 AM55.4 °F46.4 °F72 %30.39 in8.0 miSSW (200°)3.5 mphScattered Clouds
10:15 AM57.2 °F46.4 °F67 %30.39 in10.0 miSW (220°)8.1 mphMostly Cloudy
10:35 AM57.2 °F46.4 °F67 %30.38 in10.0 miSSW (210°)5.8 mphMostly Cloudy
10:55 AM60.8 °F44.6 °F55 %30.38 in10.0 miSouth (190°)6.9 mphScattered Clouds
11:15 AM62.6 °F42.8 °F48 %30.37 in10.0 miSW (220°)9.2 mphMostly Cloudy
11:35 AM64.4 °F44.6 °F49 %30.36 in10.0 miWSW (250°)10.4 mphPartly Cloudy
11:55 AM64.4 °F44.6 °F49 %30.35 in10.0 miSSW (210°)8.1 mphPartly Cloudy
12:15 PM66.2 °F42.8 °F43 %30.34 in10.0 miWSW (240°)5.8 mphPartly Cloudy
12:35 PM66.2 °F44.6 °F46 %30.33 in10.0 miWSW (250°)6.9 mphScattered Clouds
12:55 PM66.2 °F42.8 °F43 %30.32 in10.0 miWest (280°)10.4 mphScattered Clouds
1:15 PM68.0 °F42.8 °F40 %30.30 in10.0 miSSW (200°)6.9 mphPartly Cloudy
1:35 PM66.2 °F42.8 °F43 %30.30 in10.0 miSW (230°)10.4 mphScattered Clouds
1:55 PM69.8 °F42.8 °F38 %30.29 in10.0 miWSW (250°)10.4 mphPartly Cloudy
2:15 PM69.8 °F42.8 °F38 %30.29 in10.0 miSW (230°)10.4 mphClear
2:35 PM69.8 °F42.8 °F38 %30.28 in9.0 miSouth (190°)8.1 mphClear
2:55 PM69.8 °F44.6 °F40 %30.28 in10.0 miSSW (200°)5.8 mphClear
3:15 PM69.8 °F44.6 °F40 %30.28 in10.0 miSW (230°)11.5 mphClear
3:35 PM69.8 °F44.6 °F40 %30.28 in10.0 miSW (220°)6.9 mphClear
3:55 PM69.8 °F44.6 °F40 %30.28 in10.0 miSSW (210°)8.1 mphClear
4:15 PM69.8 °F44.6 °F40 %30.27 in10.0 miSW (230°)6.9 mphClear
4:35 PM68.0 °F44.6 °F43 %30.27 in10.0 miCalmClear
4:55 PM66.2 °F44.6 °F46 %30.27 in10.0 miSouth (190°)4.6 mphClear
5:15 PM64.4 °F44.6 °F49 %30.27 in10.0 miSouth (190°)3.5 mphClear
5:35 PM60.8 °F46.4 °F59 %30.28 in10.0 miCalmClear
5:55 PM59.0 °F46.4 °F63 %30.28 in10.0 miCalmClear
6:15 PM55.4 °F48.2 °F77 %30.27 in10.0 miCalmClear
6:35 PM55.4 °F46.4 °F72 %30.28 in10.0 miCalmClear
6:55 PM53.6 °F46.4 °F77 %30.28 in10.0 miCalmClear
7:15 PM51.8 °F46.4 °F82 %30.28 in10.0 miCalmClear
7:35 PM51.8 °F46.4 °F82 %30.28 in10.0 miCalmClear
7:55 PM53.6 °F44.6 °F72 %30.28 in10.0 miSouth (190°)3.5 mphClear
8:15 PM55.4 °F44.6 °F67 %30.28 in10.0 miSouth (190°)4.6 mphClear
8:35 PM55.4 °F44.6 °F67 %30.28 in10.0 miSouth (190°)3.5 mphClear
8:55 PM53.6 °F44.6 °F72 %30.29 in10.0 miSouth (190°)5.8 mphClear
9:15 PM55.4 °F44.6 °F67 %30.29 in10.0 miSouth (190°)5.8 mphClear
9:35 PM55.4 °F46.4 °F72 %30.29 in10.0 miSSW (200°)4.6 mphClear
9:55 PM55.4 °F48.2 °F77 %30.30 in10.0 miSSW (210°)5.8 mphClear
10:15 PM55.4 °F48.2 °F77 %30.30 in10.0 miSSW (210°)6.9 mphClear
10:35 PM55.4 °F48.2 °F77 %30.30 in10.0 miSW (220°)5.8 mphClear
10:55 PM55.4 °F50.0 °F82 %30.30 in10.0 miSSW (210°)6.9 mphClear
11:15 PM55.4 °F50.0 °F82 %30.29 in10.0 miSSW (200°)6.9 mphClear
11:35 PM55.4 °F50.0 °F82 %30.30 in10.0 miSSW (210°)4.6 mphClear
Hourly data recorded from K1R7, located miles away from Brookhaven, Mississippi







STORIES FROM OUR PARTNERS